Simultaneous Nadir Overpasses (SNOs) Predictions

Prediction of SNOs between METOP-A and TERRA Satellite Orbit:

Table of predicted SNOs for the next 14.0 days since TLE Epoch: 1/10/2017
Index Date (METOP-A) Time (METOP-A) Lat,Lon (METOP-A) SZA (METOP-A ) Date (TERRA) Time (TERRA) Lat,Lon (TERRA) SZA (TERRA ) Distance(km) Time Diff (sec)
1 01/10/2017 11:43:37 81.31, 51.22 105.61 01/10/2017 11:43:39 81.31, 51.36 105.62 2.36 2
2 01/10/2017 12:34:16 -81.32,-140.72 74.32 01/10/2017 12:33:05 -81.32,-140.70 74.35 0.89 71
3 01/13/2017 06:27:18 -81.30, -49.96 74.90 01/13/2017 06:28:26 -81.30, -50.02 74.89 1.36 68
4 01/13/2017 07:17:58 81.31, 117.65 105.13 01/13/2017 07:17:52 81.30, 117.68 105.12 0.91 6
5 01/16/2017 02:01:39 -81.31, 16.85 75.39 01/16/2017 02:02:39 -81.31, 16.66 75.39 3.26 60
6 01/16/2017 02:52:19 81.31,-175.54 104.64 01/16/2017 02:52:05 81.31,-175.65 104.62 1.93 14
7 01/18/2017 21:36:02 -81.30, 82.87 76.02 01/18/2017 21:36:53 -81.30, 82.92 76.00 1.04 51
8 01/18/2017 22:26:42 81.31,-109.53 104.01 01/18/2017 22:26:19 81.30,-109.41 104.01 2.09 23
9 01/21/2017 17:10:22 -81.31, 149.64 76.61 01/21/2017 17:11:05 -81.31, 149.52 76.61 2.01 43




NCC Satellite Simultaneous Nadir Overpasses (SNOs) Prediction Service
